Location: Newark
(21.1200°N, 73.4000°E)
Time: 21:34:56
(UTC+00:00)

Explorer 11/Cluster Stage 4 - Pass Details

Date: 27 January 2020
Orbit: 467 x 1259 km, 28.8° (Epoch: 19 February)

Event Time Altitude Azimuth Distance (km) Brightness Sun altitude
Rises 15:22:24 0° 276° (W) 3,657 11.0 -34.6°
Reaches altitude 10° 15:26:04 10° 259° (W) 2,538 10.0 -35.4°
Maximum altitude 15:30:08 19° 217° (SW) 1,803 8.8 -36.4°
Enters shadow 15:30:27 19° 212° (SSW) 1,793 8.7 -36.4°
Drops below altitude 10° 15:33:41 10° 172° (S) 2,156 - -37.2°
Sets 15:36:29 0° 154° (SSE) 2,928 - -37.8°
